Weather History for Three Rivers, MI

Change the Weather History Date:

Friday, January 6, 2012

  Actual Average Record
Temperature  
Mean Temperature 42 °F -  
Max Temperature 50 °F 31 °F 50 °F (1987)
Min Temperature 35 °F 15 °F -13 °F (2014)
Degree Days  
Heating Degree Days 22    
Moisture  
Dew Point 34 °F    
Average Humidity 79    
Maximum Humidity 93    
Minimum Humidity 62    
Precipitation  
Precipitation 0.00 in - - ()
Sea Level Pressure  
Sea Level Pressure 29.71 in    
Wind  
Wind Speed 7 mph (SSW)    
Max Wind Speed 10 mph    
Max Gust Speed -    
Visibility 10 miles    
Events      
Averages and records for this station are not official NWS values.
T = Trace of Precipitation, MM = Missing Value Source: NWS Daily Summary

Daily Weather History Graph

Daily Weather History Graph

Search for Another Location

Airport:

Trip Planner

Search our weather history database for the weather conditions in past years. The results will help you decide how hot, cold, wet, or windy it might be!

Date:

Astronomy

Jan. 06, 2012 Rise Set
Actual Time 8:10 AM EST 5:26 PM EST
Civil Twilight 7:38 AM EST 5:57 PM EST
Nautical Twilight 7:04 AM EST 6:32 PM EST
Astronomical Twilight 6:30 AM EST 7:06 PM EST
Moon 3:15 PM EST (1/6) 5:50 AM EST (1/6)
Length of Visible Light 10h 18m
Length of Day
9h 15m
Waxing Gibbous, 93% of the Moon is Illuminated
Jan 6
Waxing Gibbous
Jan 9
Full
Jan 16
Last Quarter
Jan 23
New
Jan 30
First Quarter

Hourly Weather History & Observations

Time (EST) Temp. Windchill Dew Point Humidity Pressure Visibility Wind Dir Wind Speed Gust Speed Precip Events Conditions
12:35 AM 35.6 °F 29.9 °F 32.0 °F 87% 29.71 in 10.0 mi SSW 6.9 mph - N/A   Clear
12:54 AM 35.6 °F 29.9 °F 32.0 °F 87% 29.71 in 10.0 mi South 6.9 mph - N/A   Clear
1:15 AM 35.6 °F 30.7 °F 32.0 °F 87% 29.71 in 10.0 mi South 5.8 mph - N/A   Clear
1:35 AM 35.6 °F 30.7 °F 32.0 °F 87% 29.71 in 10.0 mi South 5.8 mph - N/A   Clear
1:54 AM 35.6 °F 29.2 °F 32.0 °F 87% 29.71 in 10.0 mi SSW 8.1 mph - N/A   Clear
2:15 AM 35.6 °F 29.2 °F 32.0 °F 87% 29.70 in 10.0 mi SSW 8.1 mph - N/A   Clear
2:35 AM 35.6 °F 29.2 °F 32.0 °F 87% 29.71 in 10.0 mi SSW 8.1 mph - N/A   Clear
3:15 AM 35.6 °F 30.7 °F 32.0 °F 87% 29.71 in 10.0 mi SSW 5.8 mph - N/A   Clear
3:34 AM 35.6 °F 29.2 °F 32.0 °F 87% 29.71 in 10.0 mi SSW 8.1 mph - N/A   Clear
3:54 AM 37.4 °F 32.1 °F 32.0 °F 81% 29.70 in 10.0 mi SSW 6.9 mph - N/A   Clear
4:15 AM 35.6 °F 29.2 °F 32.0 °F 87% 29.70 in 10.0 mi SSW 8.1 mph - N/A   Clear
4:34 AM 35.6 °F 30.7 °F 32.0 °F 87% 29.70 in 10.0 mi SSW 5.8 mph - N/A   Clear
4:55 AM 37.4 °F 30.8 °F 32.0 °F 81% 29.69 in 10.0 mi SSW 9.2 mph - N/A   Clear
5:14 AM 37.4 °F 30.8 °F 32.0 °F 81% 29.69 in 10.0 mi SSW 9.2 mph - N/A   Clear
5:34 AM 37.4 °F 30.8 °F 32.0 °F 81% 29.70 in 10.0 mi SSW 9.2 mph - N/A   Clear
5:55 AM 37.4 °F 30.3 °F 32.0 °F 81% 29.70 in 10.0 mi SSW 10.4 mph - N/A   Clear
6:14 AM 37.4 °F 30.3 °F 32.0 °F 81% 29.70 in 10.0 mi SSW 10.4 mph - N/A   Clear
6:34 AM 37.4 °F 30.8 °F 32.0 °F 81% 29.70 in 10.0 mi SSW 9.2 mph - N/A   Clear
6:55 AM 37.4 °F 30.8 °F 32.0 °F 81% 29.70 in 10.0 mi SSW 9.2 mph - N/A   Clear
7:15 AM 35.6 °F 28.6 °F 32.0 °F 87% 29.70 in 10.0 mi SSW 9.2 mph - N/A   Clear
7:35 AM 37.4 °F 32.1 °F 32.0 °F 81% 29.71 in 10.0 mi SW 6.9 mph - N/A   Clear
7:55 AM 37.4 °F 33.8 °F 32.0 °F 81% 29.72 in 10.0 mi SW 4.6 mph - N/A   Clear
8:14 AM 35.6 °F 30.7 °F 32.0 °F 87% 29.71 in 10.0 mi SSW 5.8 mph - N/A   Clear
8:35 AM 35.6 °F 29.2 °F 32.0 °F 87% 29.71 in 10.0 mi SSW 8.1 mph - N/A   Clear
8:55 AM 37.4 °F 33.8 °F 32.0 °F 81% 29.71 in 10.0 mi SW 4.6 mph - N/A   Clear
9:14 AM 35.6 °F 30.7 °F 32.0 °F 87% 29.72 in 10.0 mi SSW 5.8 mph - N/A   Clear
9:35 AM 37.4 °F 31.4 °F 32.0 °F 81% 29.72 in 10.0 mi SSW 8.1 mph - N/A   Clear
9:55 AM 39.2 °F 34.2 °F 32.0 °F 75% 29.72 in 10.0 mi SSW 6.9 mph - N/A   Clear
10:14 AM 41.0 °F 35.8 °F 33.8 °F 76% 29.73 in 10.0 mi SW 8.1 mph - N/A   Clear
10:35 AM 42.8 °F 38.6 °F 32.0 °F 66% 29.73 in 10.0 mi SW 6.9 mph - N/A   Clear
10:54 AM 42.8 °F 38.0 °F 33.8 °F 70% 29.73 in 10.0 mi WSW 8.1 mph - N/A   Clear
11:15 AM 44.6 °F 39.7 °F 33.8 °F 66% 29.73 in 10.0 mi SW 9.2 mph - N/A   Clear
11:35 AM 44.6 °F 41.4 °F 33.8 °F 66% 29.73 in 10.0 mi SW 5.8 mph - N/A   Clear
11:54 AM 44.6 °F 40.2 °F 33.8 °F 66% 29.72 in 10.0 mi SW 8.1 mph - N/A   Clear
12:15 PM 46.4 °F 42.9 °F 33.8 °F 62% 29.71 in 10.0 mi SW 6.9 mph - N/A   Clear
1:15 PM 46.4 °F 41.9 °F 35.6 °F 66% 29.69 in 10.0 mi South 9.2 mph - N/A   Clear
1:35 PM 46.4 °F 42.4 °F 37.4 °F 71% 29.69 in 10.0 mi SSW 8.1 mph - N/A   Clear
1:54 PM 46.4 °F 41.9 °F 37.4 °F 71% 29.69 in 10.0 mi South 9.2 mph - N/A   Clear
2:15 PM 48.2 °F - 37.4 °F 66% 29.68 in 10.0 mi SSW 8.1 mph - N/A   Clear
2:35 PM 48.2 °F - 37.4 °F 66% 29.68 in 10.0 mi SSW 9.2 mph - N/A   Clear
2:54 PM 48.2 °F - 37.4 °F 66% 29.67 in 10.0 mi SSW 9.2 mph - N/A   Clear
3:15 PM 50.0 °F - 37.4 °F 62% 29.68 in 10.0 mi SSW 8.1 mph - N/A   Clear
3:35 PM 48.2 °F - 37.4 °F 66% 29.68 in 10.0 mi SSW 9.2 mph - N/A   Clear
3:55 PM 48.2 °F - 37.4 °F 66% 29.68 in 10.0 mi SSW 6.9 mph - N/A   Clear
4:15 PM 48.2 °F - 37.4 °F 66% 29.69 in 10.0 mi SW 5.8 mph - N/A   Clear
4:34 PM 46.4 °F 42.9 °F 37.4 °F 71% 29.69 in 10.0 mi SSW 6.9 mph - N/A   Clear
4:55 PM 46.4 °F 44.3 °F 37.4 °F 71% 29.70 in 10.0 mi SW 4.6 mph - N/A   Clear
5:15 PM 44.6 °F 42.2 °F 37.4 °F 76% 29.70 in 10.0 mi SSW 4.6 mph - N/A   Clear
5:55 PM 42.8 °F - 35.6 °F 76% 29.72 in 10.0 mi Calm Calm - N/A   Clear
6:15 PM 39.2 °F - 35.6 °F 87% 29.72 in 10.0 mi Calm Calm - N/A   Clear
6:34 PM 41.0 °F - 35.6 °F 81% 29.72 in 10.0 mi Calm Calm - N/A   Clear
6:55 PM 39.2 °F 37.0 °F 35.6 °F 87% 29.72 in 10.0 mi South 3.5 mph - N/A   Clear
7:15 PM 41.0 °F 39.0 °F 35.6 °F 81% 29.72 in 10.0 mi SSW 3.5 mph - N/A   Clear
7:34 PM 41.0 °F - 35.6 °F 81% 29.72 in 10.0 mi Calm Calm - N/A   Clear
7:55 PM 37.4 °F - 33.8 °F 87% 29.72 in 10.0 mi Calm Calm - N/A   Clear
8:14 PM 37.4 °F - 35.6 °F 93% 29.72 in 10.0 mi Calm Calm - N/A   Clear
8:35 PM 37.4 °F 34.9 °F 35.6 °F 93% 29.72 in 10.0 mi South 3.5 mph - N/A   Clear
8:55 PM 37.4 °F 34.9 °F 35.6 °F 93% 29.72 in 10.0 mi SSW 3.5 mph - N/A   Clear
9:15 PM 37.4 °F 33.8 °F 35.6 °F 93% 29.71 in 10.0 mi SSW 4.6 mph - N/A   Clear
9:35 PM 37.4 °F 33.8 °F 35.6 °F 93% 29.71 in 10.0 mi SSW 4.6 mph - N/A   Clear
9:55 PM 39.2 °F 35.9 °F 35.6 °F 87% 29.71 in 10.0 mi SSW 4.6 mph - N/A   Clear
10:14 PM 37.4 °F 32.8 °F 33.8 °F 87% 29.70 in 10.0 mi South 5.8 mph - N/A   Clear
10:35 PM 37.4 °F - 33.8 °F 87% 29.70 in 10.0 mi Calm Calm - N/A   Clear
10:55 PM 35.6 °F 32.8 °F 33.8 °F 93% 29.70 in 10.0 mi SW 3.5 mph - N/A   Clear
11:14 PM 37.4 °F 34.9 °F 33.8 °F 87% 29.70 in 10.0 mi SSW 3.5 mph - N/A   Clear
11:35 PM 35.6 °F - 33.8 °F 93% 29.71 in 10.0 mi Calm Calm - N/A   Clear
11:55 PM 37.4 °F - 35.6 °F 93% 29.71 in 10.0 mi Calm Calm - N/A   Clear